GFSNIL_sfc_temp_273.txt.gz
Temp
66 70 70 68 67 69 69 70 67 67 67 64 64 66 65 64 58 60 60 60 60 59
67 66 67 66 66 69 67 68 67 67 66 67 65 65 65 66 62 60 60 60 62 56
68 68 67 67 65 65 65 65 65 66 66 66 65 63 62 61 63 60 63 60 61 59
65 67 66 64 66 65 64 65 65 66 66 66 65 64 61 59 60 59 61 61 59 61
65 63 64 62 64 64 63 65 65 66 66 67 66 65 63 63 62 62 60 60 59 59
63 64 64 64 64 64 64 65 65 65 65 65 64 64 63 61 61 62 60 59 57 57
64 64 64 65 64 64 63 64 64 64 64 64 65 62 59 59 58 59 59 58 59 58
64 65 65 63 62 62 63 64 64 64 64 64 63 59 55 56 56 57 55 57 59 58
65 65 65 65 63 63 63 63 63 63 62 59 59 48 49 51 55 57 53 55 58 57
66 65 65 65 64 63 62 62 62 62 62 56 55 47 47 48 55 55 56 54 53 55
67 66 66 65 64 63 63 62 62 62 62 58 59 48 46 47 54 55 55 54 54 53
67 65 65 65 63 63 62 62 62 63 61 59 58 47 46 49 55 55 54 56 56 53
66 64 64 64 63 63 63 62 65 63 63 60 57 47 46 49 56 52 53 53 53 50
66 65 65 64 64 63 63 63 62 62 63 63 59 56 47 46 54 52 51 52 51 53

GFSNIL_sfc_temp_276.txt.gz
Temp
66 66 66 62 64 63 63 63 62 62 62 61 62 62 60 60 59 59 57 57 56 55
65 65 64 64 63 63 62 62 62 62 61 62 62 62 60 60 59 58 58 57 57 55
66 65 65 64 62 62 61 61 61 61 61 61 61 62 60 59 59 57 57 58 57 56
65 64 64 62 62 61 61 61 60 61 61 62 62 62 60 59 58 56 56 57 57 56
64 64 63 63 62 62 61 61 61 61 61 62 62 59 58 56 56 55 54 56 55 55
63 64 62 63 62 62 60 60 60 60 60 61 60 56 56 55 54 53 54 55 54 54
63 62 62 63 61 60 61 60 60 60 61 60 58 55 54 53 52 52 54 54 54 54
64 64 63 63 62 62 61 61 61 60 60 58 57 56 51 51 51 51 53 54 55 55
65 65 63 63 62 62 61 60 59 59 59 56 58 50 50 50 50 52 53 52 53 54
66 64 64 63 62 60 60 60 59 59 59 56 57 49 48 49 50 52 52 52 52 52
65 64 63 62 61 59 60 59 58 58 59 55 58 49 47 47 50 53 52 51 51 49
65 63 62 61 59 59 59 58 58 59 58 57 57 48 47 47 51 53 51 52 51 51
65 63 62 60 60 60 59 58 60 59 59 58 57 46 46 46 52 49 49 49 50 51
65 62 62 61 61 59 59 58 57 58 59 57 55 50 46 47 50 48 47 47 46 48

GFSNIL_sfc_temp_279.txt.gz
Temp
55 54 53 54 53 52 51 52 53 54 54 54 55 54 53 52 52 52 50 50 49 50
55 54 54 53 53 52 52 56 54 54 53 54 56 55 54 51 51 50 49 49 49 48
54 55 54 53 51 51 51 52 52 53 53 53 55 57 56 50 49 48 47 50 48 48
54 54 53 52 52 52 51 52 52 53 53 54 53 51 49 48 49 47 47 47 49 49
54 54 53 52 52 52 51 52 53 53 54 54 51 48 48 47 47 46 46 47 47 50
53 52 52 52 51 52 52 52 52 53 53 50 50 48 47 47 46 45 45 46 50 48
52 53 52 52 52 53 52 51 52 53 52 52 50 50 48 47 45 44 47 48 47 49
53 53 54 53 52 53 52 54 54 53 52 51 52 53 47 45 44 43 44 47 52 52
55 55 54 53 53 52 51 52 52 52 51 49 54 51 51 49 44 44 44 44 50 51
56 56 54 54 53 51 50 49 49 50 50 48 49 49 48 50 45 43 46 47 49 50
56 55 54 52 51 49 49 49 49 50 50 48 51 50 47 47 43 44 44 45 46 47
56 54 53 52 49 49 48 48 48 50 49 47 47 47 47 45 42 43 42 46 44 48
55 53 52 50 49 49 48 49 50 50 50 49 47 45 46 46 42 39 41 42 44 48
54 52 51 50 49 49 49 48 49 47 46 47 47 45 46 46 41 41 40 42 43 46

GFSNIL_sfc_temp_285.txt.gz
Temp
51 49 48 48 48 47 46 46 48 48 48 49 49 48 47 47 46 46 45 43 43 42
50 50 49 48 47 47 47 50 50 49 47 48 48 47 46 43 44 43 43 42 41 40
50 50 49 47 48 48 47 48 48 48 48 47 47 46 44 42 43 42 41 42 40 40
49 49 48 48 48 48 47 48 48 48 48 47 47 46 44 43 45 43 42 42 42 42
49 49 48 48 48 48 47 48 49 49 49 48 48 46 45 45 45 43 42 42 42 43
49 49 48 48 48 48 48 48 48 48 48 48 48 47 46 46 46 45 43 42 42 43
48 48 48 48 48 48 48 47 48 48 48 48 49 48 47 50 49 47 44 43 43 43
49 48 48 48 48 48 47 48 48 48 48 47 47 50 47 48 48 47 46 42 43 45
50 50 49 48 48 47 47 47 47 47 47 46 49 50 50 49 44 44 41 39 41 41
51 50 50 49 48 47 45 44 44 45 45 44 43 47 47 50 42 41 39 39 38 40
51 51 50 48 47 45 43 44 43 44 44 43 45 46 47 47 41 39 39 39 39 41
51 50 49 48 45 44 43 43 43 44 44 42 42 46 46 45 39 38 38 40 43 43
51 50 48 46 45 43 42 43 44 44 43 45 42 45 45 43 39 36 37 43 44 45
49 48 47 45 43 43 42 42 42 43 42 42 42 41 44 45 39 36 39 42 43 45

GFSNIL_sfc_temp_288.txt.gz
Temp
52 52 51 51 50 50 50 50 51 51 51 51 51 52 50 50 50 48 47 46 45 44
51 51 50 50 50 50 51 53 51 51 51 52 52 51 50 49 48 48 47 46 46 44
51 51 51 51 52 52 51 52 51 51 51 51 51 51 49 48 48 47 48 48 46 45
51 52 52 52 52 52 52 51 51 52 52 51 50 50 48 47 48 48 47 47 47 46
52 52 51 51 51 51 51 51 51 51 52 52 51 50 48 48 49 48 47 48 46 46
51 51 50 51 51 51 50 50 50 51 51 51 51 51 50 49 50 50 48 47 46 46
51 51 51 50 50 50 50 50 50 50 51 51 51 51 51 50 50 49 50 48 46 46
51 51 50 50 50 50 50 50 50 50 51 51 50 52 50 50 48 48 47 46 46 47
51 51 50 50 50 50 50 49 49 50 49 49 50 49 49 50 48 47 45 44 45 45
52 52 51 52 51 50 48 48 47 48 48 48 48 47 48 50 47 45 44 44 44 44
53 53 52 51 49 48 47 47 47 48 48 47 49 47 46 47 46 45 44 44 43 43
53 52 51 50 48 48 47 47 47 48 47 46 48 45 46 46 45 44 43 44 44 44
53 52 51 49 48 48 47 47 48 48 47 47 47 44 44 46 46 43 43 44 46 45
52 51 50 48 47 47 46 46 45 46 46 46 46 46 43 43 46 44 43 44 44 46

GFSNIL_sfc_temp_291.txt.gz
Temp
65 67 66 65 65 65 66 65 62 64 64 63 63 64 62 64 63 60 60 57 57 59
64 64 64 62 62 64 63 66 64 63 63 63 63 62 60 63 60 60 59 59 58 58
64 64 63 62 62 63 64 64 64 63 63 63 62 62 60 62 61 59 61 60 58 58
64 63 63 64 64 64 63 64 63 63 63 62 62 62 60 60 60 58 58 58 55 54
63 63 63 64 64 64 63 64 63 63 62 63 63 63 61 60 61 59 58 58 57 56
63 63 64 64 64 63 63 63 64 63 62 62 63 62 62 62 60 60 59 58 57 55
63 64 64 64 63 63 63 62 62 63 63 62 63 62 62 61 60 59 59 57 56 55
64 64 63 62 63 62 62 62 62 62 63 63 62 64 60 60 60 58 57 57 57 56
63 63 62 62 62 62 62 62 61 61 61 61 63 53 49 53 58 57 56 55 55 55
63 63 62 62 62 62 61 60 60 61 61 60 61 49 48 51 58 56 56 54 53 51
63 62 63 62 61 60 60 60 60 60 60 59 60 48 46 48 56 56 55 50 48 46
63 63 63 62 61 60 60 60 60 60 59 58 59 48 45 48 56 56 53 50 49 47
63 62 62 61 60 60 59 59 61 60 59 55 57 49 45 47 57 55 53 51 52 48
63 61 61 60 60 59 59 59 58 58 58 58 56 56 46 44 53 54 53 52 51 54